Regional Weather Roundup
Issued by NWS

Home | Current Version | Previous Version | Graphics & Text | Print | Product List | Glossary On
Versions: 1 2 3 4 5 6 7 8 9 10 11 12 13 14 15 16 17 18 19 20 21 22 23 24 25 26 27 28 29 30 31 32 33 34 35 36 37 38 39 40 41 42 43 44 45 46 47 48 49 50
000
ASUS43 KLOT 190506
RWRIL

ILLINOIS REGIONAL WEATHER ROUNDUP
NATIONAL WEATHER SERVICE CHICAGO/ROMEOVILLE IL
1100 PM CST THU DEC 18 2014

NOTE: "FAIR" INDICATES FEW OR NO CLOUDS BELOW 12,000 FEET WITH NO
SIGNIFICANT WEATHER AND/OR OBSTRUCTIONS TO VISIBILITY.

* THESE STATIONS ARE NOT UNDER NWS QUALITY CONTROL. THEY ALSO MAY NOT
  REPORT WEATHER SUCH AS PRECIPITATION OR FOG.

ILZ001-002-007-009-015-016-024-190600-
NORTHWEST ILLINOIS

CITY           SKY/WX    TMP DP  RH WIND       PRES   REMARKS
MOLINE         CLEAR     21  17  84 CALM      30.30R
STERLING*      CLOUDY    21  18  86 CALM      30.29S
SAVANNA*       CLOUDY    24  21  85 CALM      30.30R
$$

ILZ003-004-008-010-011-017-018-190600-
NORTH CENTRAL ILLINOIS

CITY           SKY/WX    TMP DP  RH WIND       PRES   REMARKS
ROCKFORD       CLOUDY    27  20  75 CALM      30.30R
FREEPORT*      CLOUDY    25  19  80 CALM      30.29S
ROCHELLE*      CLOUDY    25  18  76 CALM      30.29R
DE KALB*       CLOUDY    24  19  80 W6        30.27R WCI  17
PERU*          CLEAR     22  19  87 NW5       30.30S WCI  16
$$

ILZ005-006-012>014-019>023-190600-
NORTHEAST ILLINOIS

CITY           SKY/WX    TMP DP  RH WIND       PRES   REMARKS
CHICAGO-OHARE  CLOUDY    28  21  75 NW6       30.26R WCI  22
CHICAGO-MIDWAY FLURRIES  30  21  69 NW7       30.26R WCI  23
AURORA         CLOUDY    27  20  75 W7        30.28R WCI  19
LANSING*       CLOUDY    27  21  77 W7        30.26S WCI  19
JOLIET*        CLOUDY    26  20  79 W6        30.28R WCI  19
WAUKEGAN       CLOUDY    28  23  81 NW5       30.25R WCI  23
DUPAGE AIRPORT CLOUDY    27  19  72 NW7       30.26R WCI  19
KANKAKEE*      PTCLDY    22  19  91 W6        30.28S WCI  14
WHEELING       CLOUDY    28  23  81 NW5       30.28R WCI  23
MORRIS*        CLOUDY    25  22  89 W7        30.28R WCI  17
ROMEOVILLE*    CLOUDY    26  21  79 W7        30.27R WCI  19
NORTHERLY ISL    N/A     29  22  75 NW8         N/A  WCI  21
$$

LMZ740>746-190600-
SOUTHERN LAKE MICHIGAN

STATION/POSITION SKY/WX   TEMP    WIND        PRES    VSBY  WAVE
                          AIR SEA DIR/SP/G                  HT/PER
                          (F)     (DEG/KT/KT) (MB)    (MI)  (FT/S)
WAUKEGAN HARBOR            28     330/  5/  7   N/A
HARRISON CRIB              28     280/  8/ 10   N/A
BURNHAM HARBOR             30     290/  7/  8   N/A
CALUMET HARBOR             28     230/  3/  5 1023.2S
$$

ILZ025>027-034>036-040-047-049-050-058-095>099-190600-
WEST-CENTRAL ILLINOIS

CITY           SKY/WX    TMP DP  RH WIND       PRES   REMARKS
QUINCY         CLOUDY    28  23  81 E3        30.29S
GALESBURG*     CLOUDY    25  22  87 N3        30.29S
MACOMB*        CLOUDY    28  24  82 CALM      30.31S
JACKSONVILLE*  CLOUDY    31  26  81 CALM      30.31R
PITTSFIELD*    CLOUDY    30  26  87 CALM      30.31S
$$

ILZ028>032-037-038-041>044-048-051>054-059>061-190600-
CENTRAL ILLINOIS

CITY           SKY/WX    TMP DP  RH WIND       PRES   REMARKS
PONTIAC        CLEAR     21  18  90 W5        30.30S WCI  14
BLOOMINGTON    CLEAR     22  19  88 CALM      30.29R
DECATUR        CLOUDY    25  22  88 CALM      30.29S
PEORIA         MOCLDY    25  19  78 CALM      30.31R
LACON*         CLEAR     18  15  89 CALM      30.30R
LINCOLN*       CLOUDY    28  23  81 CALM      30.31R
SPRINGFIELD    CLOUDY    29  22  75 CALM      30.30R
TAYLORVILLE    CLOUDY    30  27  86 CALM      30.30R
$$

ILZ033-039-045-046-055>057-062-063-190600-
EAST-CENTRAL ILLINOIS

CITY           SKY/WX    TMP DP  RH WIND       PRES   REMARKS
CHAMPAIGN      CLEAR     23  18  81 N3        30.28S
DANVILLE*      PTCLDY    22  20  91 CALM      30.25S
RANTOUL*       PTCLDY    24  20  85 CALM      30.28S
MATTOON        CLOUDY    27  22  81 NW5       30.27S WCI  22
PARIS*         CLOUDY    29  25  85 N5        30.29S WCI  24
$$

ILZ079-100>102-190600-
SOUTHWEST ILLINOIS

CITY           SKY/WX    TMP DP  RH WIND       PRES   REMARKS
ALTON          CLOUDY    31  27  82 CALM      30.31R
BELLEVILLE     CLOUDY    33  28  83 CALM      30.29S
CAHOKIA*       CLOUDY    34  27  75 CALM      30.30R
SPARTA*        CLOUDY    32  28  83 CALM      30.30S
$$

ILZ064>066-069>071-074>076-080>082-084>086-088>090-092>094-190600-
SOUTH-CENTRAL ILLINOIS

CITY           SKY/WX    TMP DP  RH WIND       PRES   REMARKS
CARBONDALE     CLOUDY    33  28  81 CALM      30.29S
CAIRO*         CLOUDY    37  34  89 N3        30.28S
EFFINGHAM*     CLOUDY    30  23  75 CALM      30.31R
MARION         CLOUDY    34  28  80 CALM      30.29F
MT. VERNON     CLOUDY    30  25  80 CALM      30.30R
CENTRALIA*     CLOUDY    31  26  79 CALM      30.29S
SALEM*         CLOUDY    32  28  85 CALM      30.30R
METROPOLIS*    CLOUDY    35  34  97 N3        30.27F FOG
$$

ILZ067-068-072-073-078-083-087-091-190600-
SOUTHEAST ILLINOIS

CITY           SKY/WX    TMP DP  RH WIND       PRES   REMARKS
LAWRENCEVILLE  CLOUDY    31  24  75 N3        30.30R
FLORA*         CLEAR     31  26  83 CALM      30.30S
FAIRFIELD*     CLOUDY    31  26  82 CALM      30.29S
HARRISBURG*    CLOUDY    32  28  85 N5        30.30F WCI  28
ROBINSON*      CLOUDY    29  26  86 NE5       30.30S WCI  24
CARMI*         CLOUDY    33  29  83 CALM      30.30S
$$

ABBREVIATIONS USED IN REMARKS
   TC - TEMPERATURE IN CELSIUS
  WCI - WIND CHILL INDEX
   HX - HEAT INDEX
  VSB - VISIBILITY
$$




USA.gov is the U.S. government's official web portal to all federal, state and local government web resources and services.